TimeCST,TemperatureF,Dew PointF,Humidity,Sea Level PressureIn,VisibilityMPH,Wind Direction,Wind SpeedMPH,Gust SpeedMPH,PrecipitationIn,Events,Conditions,WindDirDegrees,DateUTC
12:15 AM,21.2,10.4,63,30.33,10.0,East,10.4,-,N/A,,Scattered Clouds,90,2013-02-21 06:15:00
12:35 AM,21.2,10.4,63,30.33,10.0,East,6.9,-,N/A,,Scattered Clouds,80,2013-02-21 06:35:00
12:55 AM,21.2,10.4,63,30.32,10.0,ENE,10.4,-,N/A,,Clear,70,2013-02-21 06:55:00
1:15 AM,19.4,10.4,68,30.33,10.0,East,5.8,-,N/A,,Clear,80,2013-02-21 07:15:00
1:35 AM,19.4,10.4,68,30.33,10.0,East,5.8,-,N/A,,Clear,80,2013-02-21 07:35:00
1:55 AM,19.4,10.4,68,30.33,10.0,East,4.6,-,N/A,,Clear,90,2013-02-21 07:55:00
2:15 AM,19.4,10.4,68,30.34,10.0,East,4.6,-,N/A,,Clear,80,2013-02-21 08:15:00
2:35 AM,19.4,10.4,68,30.34,10.0,ENE,3.5,-,N/A,,Clear,70,2013-02-21 08:35:00
2:55 AM,19.4,10.4,68,30.32,10.0,ENE,4.6,-,N/A,,Clear,60,2013-02-21 08:55:00
3:15 AM,19.4,10.4,68,30.30,10.0,ENE,5.8,-,N/A,,Clear,60,2013-02-21 09:15:00
3:35 AM,19.4,10.4,68,30.27,10.0,ENE,6.9,-,N/A,,Clear,70,2013-02-21 09:35:00
3:55 AM,19.4,10.4,68,30.26,10.0,East,8.1,-,N/A,,Clear,80,2013-02-21 09:55:00
4:15 AM,19.4,10.4,68,30.25,10.0,East,11.5,-,N/A,,Clear,80,2013-02-21 10:15:00
4:35 AM,19.4,10.4,68,30.28,10.0,East,9.2,-,N/A,,Clear,80,2013-02-21 10:35:00
4:55 AM,19.4,10.4,68,30.31,10.0,East,6.9,-,N/A,,Clear,80,2013-02-21 10:55:00
5:15 AM,19.4,10.4,68,30.28,10.0,ENE,8.1,-,N/A,,Clear,70,2013-02-21 11:15:00
5:55 AM,19.4,10.4,68,30.26,10.0,East,10.4,-,N/A,,Clear,80,2013-02-21 11:55:00
6:15 AM,19.4,10.4,68,30.27,10.0,East,11.5,-,N/A,,Clear,80,2013-02-21 12:15:00
6:35 AM,19.4,10.4,68,30.26,10.0,East,13.8,-,N/A,,Clear,80,2013-02-21 12:35:00
6:55 AM,19.4,10.4,68,30.26,10.0,East,12.7,-,N/A,,Clear,80,2013-02-21 12:55:00
7:15 AM,19.4,12.2,74,30.23,10.0,ENE,13.8,19.6,N/A,,Clear,70,2013-02-21 13:15:00
7:35 AM,21.2,12.2,68,30.25,10.0,East,11.5,-,N/A,,Clear,90,2013-02-21 13:35:00
7:55 AM,21.2,12.2,68,30.26,10.0,East,11.5,-,N/A,,Clear,90,2013-02-21 13:55:00
8:15 AM,21.2,12.2,68,30.25,10.0,East,12.7,-,N/A,,Clear,100,2013-02-21 14:15:00
8:35 AM,23.0,14.0,68,30.26,10.0,ESE,17.3,20.7,N/A,,Clear,110,2013-02-21 14:35:00
8:55 AM,23.0,14.0,68,30.24,10.0,East,18.4,-,N/A,,Clear,100,2013-02-21 14:55:00
9:15 AM,23.0,14.0,68,30.24,10.0,East,16.1,19.6,N/A,,Clear,90,2013-02-21 15:15:00
9:35 AM,24.8,15.8,69,30.24,10.0,East,12.7,-,N/A,,Clear,90,2013-02-21 15:35:00
9:55 AM,24.8,15.8,69,30.21,10.0,East,13.8,-,N/A,,Clear,80,2013-02-21 15:55:00
10:15 AM,24.8,15.8,69,30.21,10.0,East,16.1,-,N/A,,Clear,80,2013-02-21 16:15:00
10:35 AM,24.8,15.8,69,30.22,10.0,East,15.0,-,N/A,,Scattered Clouds,90,2013-02-21 16:35:00
10:55 AM,24.8,15.8,69,30.21,10.0,East,15.0,-,N/A,,Mostly Cloudy,90,2013-02-21 16:55:00
11:15 AM,24.8,15.8,69,30.22,10.0,East,12.7,18.4,N/A,,Scattered Clouds,90,2013-02-21 17:15:00
11:35 AM,26.6,15.8,64,30.21,10.0,East,12.7,-,N/A,,Mostly Cloudy,90,2013-02-21 17:35:00
11:55 AM,26.6,15.8,64,30.18,10.0,East,15.0,-,N/A,,Mostly Cloudy,80,2013-02-21 17:55:00
12:15 PM,26.6,15.8,64,30.15,10.0,East,13.8,-,N/A,,Mostly Cloudy,80,2013-02-21 18:15:00
12:35 PM,26.6,17.6,69,30.16,10.0,East,16.1,-,N/A,,Overcast,90,2013-02-21 18:35:00
12:55 PM,26.6,17.6,69,30.15,0.8,East,15.0,23.0,N/A,Snow,Light Snow,100,2013-02-21 18:55:00
1:15 PM,26.6,17.6,69,30.12,0.5,East,13.8,18.4,N/A,Snow,Snow,80,2013-02-21 19:15:00
1:35 PM,26.6,19.4,74,30.10,0.2,East,17.3,-,N/A,Snow,Snow,90,2013-02-21 19:35:00
1:55 PM,26.6,19.4,74,30.09,0.2,East,9.2,-,N/A,Snow,Snow,90,2013-02-21 19:55:00
2:15 PM,26.6,19.4,74,30.09,0.2,East,13.8,-,N/A,Snow,Snow,90,2013-02-21 20:15:00
2:35 PM,26.6,19.4,74,30.07,0.2,East,13.8,-,N/A,Snow,Heavy Snow,80,2013-02-21 20:35:00
2:55 PM,26.6,19.4,74,30.03,0.2,East,18.4,25.3,N/A,Snow,Heavy Snow,90,2013-02-21 20:55:00
3:15 PM,26.6,19.4,74,30.02,0.2,East,17.3,23.0,N/A,Snow,Heavy Snow,80,2013-02-21 21:15:00
3:35 PM,26.6,19.4,74,30.00,0.2,ENE,16.1,25.3,N/A,Snow,Snow,70,2013-02-21 21:35:00
3:55 PM,28.4,19.4,69,29.99,0.5,East,18.4,-,N/A,Snow,Snow,80,2013-02-21 21:55:00
4:15 PM,28.4,21.2,74,29.98,1.0,East,17.3,24.2,N/A,Snow,Light Snow,80,2013-02-21 22:15:00
4:35 PM,28.4,21.2,74,29.96,1.5,East,19.6,27.6,N/A,Snow,Light Snow,80,2013-02-21 22:35:00
4:55 PM,28.4,21.2,74,29.94,0.5,East,19.6,26.5,N/A,Snow,Light Snow,80,2013-02-21 22:55:00
5:15 PM,28.4,21.2,74,29.93,0.5,East,15.0,24.2,N/A,Snow,Snow,80,2013-02-21 23:15:00
5:35 PM,28.4,21.2,74,29.92,0.5,East,21.9,25.3,N/A,Snow,Snow,80,2013-02-21 23:35:00
5:55 PM,28.4,21.2,74,29.92,1.2,East,19.6,25.3,N/A,Snow,Light Snow,80,2013-02-21 23:55:00
6:15 PM,28.4,21.2,74,29.91,1.2,East,18.4,24.2,N/A,Snow,Light Snow,80,2013-02-22 00:15:00
6:35 PM,28.4,21.2,74,29.90,1.5,East,17.3,23.0,N/A,Snow,Light Snow,90,2013-02-22 00:35:00
6:55 PM,28.4,21.2,74,29.88,1.8,East,16.1,23.0,N/A,Snow,Light Snow,80,2013-02-22 00:55:00
7:15 PM,28.4,21.2,74,29.88,1.0,East,17.3,-,N/A,Snow,Snow,80,2013-02-22 01:15:00
7:35 PM,28.4,21.2,74,29.88,1.0,East,15.0,-,N/A,Snow,Light Snow,80,2013-02-22 01:35:00
7:55 PM,28.4,21.2,74,29.88,1.2,East,16.1,19.6,N/A,Snow,Light Snow,80,2013-02-22 01:55:00
8:15 PM,28.4,21.2,74,29.87,1.0,East,17.3,23.0,N/A,Snow,Light Snow,90,2013-02-22 02:15:00
8:35 PM,28.4,21.2,74,29.86,1.0,East,16.1,-,N/A,Snow,Light Snow,90,2013-02-22 02:35:00
8:55 PM,28.4,21.2,74,29.87,1.0,East,15.0,-,N/A,Snow,Light Snow,90,2013-02-22 02:55:00
9:15 PM,28.4,21.2,74,29.87,1.0,East,16.1,-,N/A,Snow,Light Snow,90,2013-02-22 03:15:00
9:35 PM,28.4,21.2,74,29.86,1.0,East,15.0,-,N/A,Snow,Snow,90,2013-02-22 03:35:00
9:55 PM,28.4,21.2,74,29.86,1.0,East,15.0,-,N/A,Snow,Light Snow,90,2013-02-22 03:55:00
10:15 PM,28.4,21.2,74,29.85,1.0,East,12.7,-,N/A,Snow,Light Snow,90,2013-02-22 04:15:00
10:35 PM,28.4,21.2,74,29.84,1.0,East,10.4,-,N/A,Snow,Snow,90,2013-02-22 04:35:00
10:55 PM,28.4,21.2,74,29.84,1.0,East,9.2,-,N/A,Snow,Light Snow,90,2013-02-22 04:55:00
11:15 PM,30.2,23.0,75,29.83,1.2,East,8.1,-,N/A,Snow,Light Snow,80,2013-02-22 05:15:00
11:35 PM,30.2,23.0,75,29.82,1.5,East,6.9,-,N/A,Snow,Light Snow,80,2013-02-22 05:35:00
11:55 PM,30.2,23.0,75,29.82,3.0,East,6.9,-,N/A,Snow,Light Snow,80,2013-02-22 05:55:00